Weather in Dmitriyevka

Russia / Kemerovo Oblast     56°01′54″N   87°54′33″E
temp.,
°C
wind,
m/s
gust,
m/s
humid.,
%
clouds,
%
prec.,
mm/h
press.,
hPa
HPBL,
m
18 april, sun
sun1801:00−7s2481100 0.0 1023105
04:00−6s3677100 0.0 1020158
07:00−3ssw51275100 0.0 1018443
10:00+1sw81270100 0.0 1015963
13:00+3sw91270100 0.0 10141212
16:00+4sw71274100 0.1 10131038
19:00+3sw61377100 0.1 1011682
22:00+2ssw61486100 0.0 1008667
19 april, mon
mon1901:00+2ssw61497100 0.5 1002690
04:00+2sw71598100 1.8 997819
07:00+1wsw11168615 2.4 9961151
10:00−7nw111487100 0.7 10061151
13:00−6wnw101270100 1.1 10151339
16:00−5wnw91160100 0.0 10181960
19:00−6wnw71168100 0.1 10201450
22:00−8w6117268 0.1 1022910
20 april, tue
tue2001:00−8w71078100 0.1 1022971
04:00−9wnw697695 0.1 1023725
07:00−9w588099 0.1 1025595
10:00−6w5768100 0.1 10251113
13:00−4w5664100 0.1 10251342
16:00−2wnw4654100 0.1 10241553
19:00−3wnw3560100 0.1 1024860
22:00−6w1272100 0.1 102440
21 april, wed
wed2101:00−7ssw237548 0.1 102477
04:00−7s3571100 0.0 1024133
07:00−6s3770100 0.0 1024205
10:00−2s3561100 0.0 1025877
13:00−1ssw2358100 0.2 10241240
16:000e2256100 0.3 10251099
19:00−1ese2468100 0.3 1026470
22:00−3ene2474100 0.0 1028106
22 april, thu
thu2201:00−3ne377699 0.0 1029190
04:00−5ne368032 0.0 1031160
07:00−5ne378032 0.0 1033225
10:000ne566013 0.0 10351078
13:00+1nne555899 0.1 10361513
16:00+2nne4555100 0.3 10371195
19:00+1nne4765100 0.3 1039335
22:00−2nne368497 0.1 1041131